TimeEDT,TemperatureF,Dew PointF,Humidity,Sea Level PressureIn,VisibilityMPH,Wind Direction,Wind SpeedMPH,Gust SpeedMPH,PrecipitationIn,Events,Conditions,WindDirDegrees,DateUTC
12:53 AM,79.0,64.9,62,30.08,10.0,NNE,11.5,21.9,N/A,,Scattered Clouds,20,2012-10-13 04:53:00
1:53 AM,79.0,64.9,62,30.07,10.0,NE,13.8,-,N/A,,Scattered Clouds,40,2012-10-13 05:53:00
2:53 AM,79.0,64.0,60,30.06,10.0,NNE,9.2,18.4,N/A,,Scattered Clouds,30,2012-10-13 06:53:00
3:53 AM,79.0,64.9,62,30.05,10.0,NNE,11.5,-,N/A,,Partly Cloudy,20,2012-10-13 07:53:00
4:53 AM,79.0,66.0,64,30.04,10.0,NNE,11.5,-,N/A,,Scattered Clouds,20,2012-10-13 08:53:00
5:53 AM,79.0,66.0,64,30.05,10.0,NNE,11.5,-,N/A,,Mostly Cloudy,30,2012-10-13 09:53:00
6:53 AM,80.1,66.9,64,30.06,10.0,NNE,15.0,23.0,N/A,,Overcast,20,2012-10-13 10:53:00
7:53 AM,80.1,68.0,67,30.07,10.0,NNE,11.5,20.7,0.00,,Mostly Cloudy,30,2012-10-13 11:53:00
8:53 AM,82.0,66.9,60,30.09,10.0,NE,16.1,28.8,N/A,,Scattered Clouds,40,2012-10-13 12:53:00
9:53 AM,82.9,66.9,58,30.11,10.0,NE,18.4,26.5,N/A,,Mostly Cloudy,50,2012-10-13 13:53:00
10:53 AM,81.0,66.9,62,30.12,10.0,ENE,21.9,28.8,0.00,Rain,Light Rain,60,2012-10-13 14:53:00
11:53 AM,82.9,68.0,60,30.11,10.0,NE,19.6,29.9,0.00,,Mostly Cloudy,40,2012-10-13 15:53:00
12:53 PM,84.0,66.0,55,30.09,10.0,ENE,23.0,29.9,N/A,,Mostly Cloudy,60,2012-10-13 16:53:00
1:53 PM,86.0,64.9,49,30.07,10.0,ENE,19.6,29.9,N/A,,Scattered Clouds,60,2012-10-13 17:53:00
2:53 PM,84.9,64.9,51,30.05,10.0,ENE,21.9,28.8,N/A,,Scattered Clouds,70,2012-10-13 18:53:00
3:53 PM,84.9,64.0,49,30.04,10.0,NE,15.0,25.3,N/A,,Scattered Clouds,50,2012-10-13 19:53:00
4:53 PM,82.9,63.0,51,30.03,10.0,ENE,20.7,26.5,N/A,,Scattered Clouds,60,2012-10-13 20:53:00
5:53 PM,82.9,64.0,53,30.04,10.0,NE,18.4,25.3,N/A,,Scattered Clouds,40,2012-10-13 21:53:00
6:53 PM,82.0,64.9,56,30.05,10.0,NE,18.4,25.3,N/A,,Mostly Cloudy,50,2012-10-13 22:53:00
7:53 PM,81.0,64.9,58,30.06,10.0,ENE,17.3,26.5,N/A,,Scattered Clouds,70,2012-10-13 23:53:00
8:53 PM,81.0,63.0,54,30.07,10.0,ENE,18.4,27.6,N/A,,Scattered Clouds,70,2012-10-14 00:53:00
9:53 PM,81.0,63.0,54,30.08,10.0,East,16.1,28.8,N/A,,Partly Cloudy,80,2012-10-14 01:53:00
10:53 PM,81.0,64.9,58,30.08,10.0,ENE,17.3,26.5,N/A,,Mostly Cloudy,70,2012-10-14 02:53:00
11:53 PM,81.0,66.9,62,30.07,10.0,ENE,15.0,21.9,N/A,,Scattered Clouds,70,2012-10-14 03:53:00